Date,TemperatureHighF,TemperatureAvgF,TemperatureLowF,DewpointHighF,DewpointAvgF,DewpointLowF,HumidityHigh,HumidityAvg,HumidityLow,PressureMaxIn,PressureMinIn,WindSpeedMaxMPH,WindSpeedAvgMPH,GustSpeedMaxMPH,PrecipitationSumIn
2013-3-1,70,58,47,53,47,42,83,68,52,30.35,30.19,6,2,0,0.00
2013-3-2,69,60,53,52,49,43,84,66,53,30.19,29.99,4,2,0,0.00
2013-3-3,61,55,49,55,51,48,98,85,75,30.01,29.93,7,2,0,0.00
2013-3-4,64,52,42,56,50,41,98,91,74,30.04,29.94,6,2,0,0.00
2013-3-5,59,50,42,47,44,37,98,81,50,29.95,29.76,8,3,0,0.00
2013-3-6,52,45,41,47,43,41,98,92,75,29.97,29.77,16,3,0,0.69
2013-3-7,53,46,38,46,43,37,98,89,72,29.91,29.76,6,2,0,0.00
2013-3-8,60,50,38,48,44,37,98,82,57,29.92,29.70,7,3,0,0.00
2013-3-9,66,51,38,53,43,35,98,76,48,30.20,29.94,9,3,0,0.00
2013-3-10,63,52,42,52,45,32,98,78,56,30.27,30.18,5,2,0,0.00
2013-3-11,68,56,44,52,47,40,98,75,55,30.19,30.03,6,2,0,0.00
2013-3-12,73,60,49,57,51,46,94,74,55,30.09,30.00,5,2,0,0.00
2013-3-13,77,64,54,58,54,48,97,71,49,30.10,30.01,5,2,0,0.00
2013-3-14,78,65,57,58,52,44,91,65,48,30.08,30.00,5,2,0,0.00
2013-3-15,74,62,54,57,51,44,82,67,54,30.03,29.94,5,2,0,0.00
2013-3-16,72,60,50,57,48,41,83,64,43,29.99,29.92,7,2,0,0.00
2013-3-17,68,56,46,49,44,38,76,64,48,30.04,29.93,5,2,0,0.00
2013-3-18,66,57,46,48,44,36,81,62,44,30.01,29.94,6,2,0,0.00
2013-3-19,68,58,49,53,48,44,98,72,50,30.06,29.97,5,2,0,0.22
2013-3-20,58,53,50,57,52,50,98,98,96,30.04,30.00,9,3,0,0.73
2013-3-21,62,54,47,55,44,37,98,70,51,30.00,29.91,7,2,0,0.01
2013-3-22,62,50,38,42,39,35,98,69,45,29.97,29.90,8,3,0,0.00
2013-3-23,65,51,38,47,39,33,89,66,35,30.03,29.95,5,2,0,0.00
2013-3-24,70,57,45,51,43,37,76,61,43,30.00,29.88,6,2,0,0.00
2013-3-25,69,57,49,55,49,44,88,76,57,29.91,29.82,6,2,0,0.00
2013-3-26,68,55,43,56,49,41,98,81,58,29.90,29.83,8,3,0,0.00
2013-3-27,67,57,48,60,53,46,98,87,75,29.94,29.84,9,2,0,0.00
2013-3-28,67,58,52,58,54,52,98,87,64,30.02,29.93,5,2,0,0.00
2013-3-29,76,63,52,58,52,46,88,69,47,30.02,29.94,5,2,0,0.00
2013-3-30,72,63,55,60,55,50,98,76,63,29.97,29.87,5,2,0,0.00
2013-3-31,66,56,51,58,45,-12,98,73,6,30.02,29.90,6,2,0,1.09